Серахс

Иран     36°32′38″N   61°09′41″E
темп.,
°C
ветер,
м/с
пор.,
м/с
влажн.,
%
обл.,
%
осадки,
мм/ч
давл.,
гПа
погр.,
м
20 апреля, вт
вт2023:00+22ссв222573 0.0 101214
02:00+21сз58291 0.0 1013121
05:00+20сз6123283 0.0 1013201
08:00+21зсз510355 0.0 1015419
11:00+27ссз77251 0.0 10161914
14:00+29ссз7821100 0.0 10142683
17:00+29ссз67185 0.0 10122524
20:00+25ссв4524100 0.0 101358
21 апреля, ср
ср2123:00+22ссв2228100 0.0 101415
02:00+21в333194 0.0 101420
05:00+19вюв223683 0.0 101511
08:00+21в34334 0.0 1016191
11:00+26в22235 0.0 10161017
14:00+30св421915 0.0 10142300
17:00+30св642012 0.0 10142523
20:00+25св592634 0.0 1015145
22 апреля, чт
чт2223:00+22всв48285 0.0 1017168
02:00+19вюв113599 0.0 101711
05:00+18св44352 0.0 101845
08:00+19всв35324 0.0 1020279
11:00+24св43233 0.0 10201015
14:00+28ссв54195 0.0 10191568
17:00+28ссв661765 0.0 10181638
20:00+23св58912 0.0 1019127
23 апреля, пт
пт2323:00+20всв44116 0.0 101942
02:00+17юв22155 0.0 101811
05:00+16вюв22165 0.0 101811
08:00+20вюв22155 0.0 1019117
11:00+25в33113 0.0 10181099
14:00+29всв4475 0.0 10161600
17:00+30всв4460 0.0 10141643
20:00+25всв44818 0.0 101533
24 апреля, сб
сб2423:00+22в33913 0.0 101514
02:00+19ююв221757 0.0 101411
05:00+17вюв002133 0.0 101511
08:00+22св1116100 0.0 101761
11:00+26сз771354 0.0 1018996
14:00+30ссз871413 0.0 10162236
17:00+29ссз981867 0.0 10162371
20:00+25ссз5925100 0.0 1018148